Regional Weather Roundup
Issued by NWS Grand Forks, ND

Home | Current Version | Previous Version | Graphics & Text | Print | Product List | Glossary On
Versions: 1 2 3 4 5 6 7 8 9 10 11 12 13 14 15 16 17 18 19 20 21 22 23 24 25 26 27 28 29 30 31 32 33 34 35 36 37 38 39 40 41 42 43 44 45 46 47 48 49 50
000
ASUS43 KFGF 280031
RWRFGF
PRAIRIE TO PINES  WEATHER ROUNDUP
NATIONAL WEATHER SERVICE EASTERN NORTH DAKOTA/GRAND FORKS ND
700 PM CDT TUE JUN 27 2017

 **SATELLITE DATA USED TO AUGMENT SKY COVER AT AUTOMATED STATIONS**
 *****  WEATHER ACROSS EASTERN NORTH DAKOTA  *****

CITY           SKY/WX    TMP DP  RH WIND       PRES   REMARKS
GRAND FORKS    FAIR      76  48  37 S15       29.66F
6HR MIN TEMP:  76; 6HR MAX TEMP:  81;

GRAND FRKS AFB FAIR      76  48  36 S18G24    29.65F
DEVILS LAKE    FAIR      79  52  38 SE16G23   29.59F
6HR MIN TEMP:  71; 6HR MAX TEMP:  81;

FARGO          FAIR      75  48  38 SE15G25   29.67F
WAHPETON ARPT  FAIR      72  46  40 SE15      29.68F
$$

 ***** WEATHER ACROSS CENTRAL AND WESTERN NORTH DAKOTA  *****

CITY           SKY/WX    TMP DP  RH WIND       PRES   REMARKS
BISMARCK       FAIR      85  62  46 SE13      29.49F
6HR MIN TEMP:  81; 6HR MAX TEMP:  90;

MINOT          FAIR      82  58  43 SE10      29.52S
6HR MIN TEMP:  79; 6HR MAX TEMP:  88;

JAMESTOWN      FAIR      80  47  31 S18G28    29.60S
6HR MIN TEMP:  71; 6HR MAX TEMP:  83;

MINOT AFB      FAIR      81  60  49 S6        29.51S
GARRISON         N/A     81  61  50 E7        29.51S
WILLISTON      FAIR      80  53  39 N17       29.57R
6HR MIN TEMP:  80; 6HR MAX TEMP:  91;

DICKINSON      FAIR      85  43  22 NW18G30   29.53S
6HR MIN TEMP:  82; 6HR MAX TEMP:  89;

HETTINGER      FAIR      89  46  22 NW25G32   29.56R
6HR MIN TEMP:  84; 6HR MAX TEMP:  93;

$$

 *****  OTHER AIRPORT OBSERVATIONS IN OUR AREA  *****

CITY           SKY/WX    TMP DP  RH WIND       PRES   REMARKS
WALHALLA       NOT AVBL
GRAFTON AIRPOR FAIR      75  48  38 SE17G25   29.66F
VALLEY CITY AR FAIR      79  52  38 S21G28    29.65S
CANDO          NOT AVBL
CAVALIER APRT  FAIR      77  48  36 S12G22    29.63S
GWINNER        CLOUDY    77  50  38 S20       29.64F
SHEYENNE NWR     N/A     79  53  40 S15       29.95S
ROLLA            N/A     75  55  50 S14       29.57S
 ***** THE ABOVE OBSERVATIONS ARE NON NWS ARE NOT QUALITY
       CONTROLLED AND MAY MIS-REPORT RAIN FOR SNOW...
$$

  *****  WEATHER ACROSS NORTHERN MINNESOTA  *****

CITY           SKY/WX    TMP DP  RH WIND       PRES   REMARKS
FLAG ISLAND    FAIR      68  55  64 S14       29.71F
WARROAD        FAIR      73  52  46 S8        29.72F
ROSEAU         FAIR      73  50  43 S13       29.71S
HALLOCK        FAIR      75  46  35 S20       29.66S
THF RVR FALLS  FAIR      73  43  33 S16G24    29.72F
6HR MIN TEMP:  73; 6HR MAX TEMP:  77;

BAUDETTE       FAIR      71  48  43 S8        29.75F
6HR MIN TEMP:  70; 6HR MAX TEMP:  74;

WASKISH        FAIR      73  48  40 S5        29.77S
CROOKSTON      FAIR      73  46  38 S15G22    29.70S
STEPHEN NDAWN    N/A     75  46  35 S17         N/A
GREENBUSH NDAW   N/A     75  45  33 S12         N/A
$$
  *****  WEATHER ACROSS CENTRAL AND WEST MINNESOTA  *****

CITY           SKY/WX    TMP DP  RH WIND       PRES   REMARKS
FOSSTON        FAIR      73  45  35 SE13G22   29.73F
BEMIDJI        FAIR      73  44  36 S13G20    29.77F
PARK RAPIDS    FAIR      75  42  30 S17G23    29.78F
6HR MIN TEMP:  72; 6HR MAX TEMP:  77;

ELBOW LAKE     MOCLDY    71  50  48 SE18      29.72F
6HR MIN TEMP:  67; 6HR MAX TEMP:  72;

WADENA         FAIR      72  45  37 S9G16     29.78R
DETROIT LAKES  HVY RAIN  68  46  45 SE12      29.75F
MOORHEAD       FAIR      73  46  38 SE15G23   29.69F
FERGUS FALLS   PTSUNNY   68  54  60 SE13      29.69F
MORRIS MN      FAIR      73  48  40 S23G29    29.69F THUNDER
STAPLES        FAIR      72  41  33 SE9       29.78F
$$
  *****  WEATHER ELSEWHERE ACROSS MINNESOTA  *****

CITY           SKY/WX    TMP DP  RH WIND       PRES   REMARKS
DULUTH         FAIR      71  45  39 S16       29.84F
6HR MIN TEMP:  70; 6HR MAX TEMP:  73;

INTRNTL FALLS  FAIR      70  46  42 W7        29.77F
6HR MIN TEMP:  70; 6HR MAX TEMP:  75;

ELY            FAIR      70  43  37 SW8       29.83S
CLOQUET        FAIR      70  39  32 S10G20    29.84S
WHEATON        FAIR      77  43  29 SE22G30   29.68F
BRAINERD       FAIR      73  43  33 S10G22    29.82S
6HR MIN TEMP:  70; 6HR MAX TEMP:  75;

HIBBING        FAIR      70  42  36 SW6       29.82F
6HR MIN TEMP:  69; 6HR MAX TEMP:  72;

ALEXANDRIA     LGT RAIN  65  52  62 S12       29.78F
6HR MIN TEMP:  68; 6HR MAX TEMP:  72;

SAINT CLOUD    FAIR      72  44  36 S9        29.82S
6HR MIN TEMP:  72; 6HR MAX TEMP:  77;

MINNEAPOLIS    PTSUNNY   75  42  30 S12G22    29.86F
6HR MIN TEMP:  73; 6HR MAX TEMP:  77;

$$

  *****  WEATHER ACROSS SOUTH DAKOTA  *****

CITY           SKY/WX    TMP DP  RH WIND       PRES   REMARKS
SIOUX FALLS    PTSUNNY   77  59  53 S20G30    29.72F
6HR MIN TEMP:  73; 6HR MAX TEMP:  80; 6HR PCP: TRACE;

BROOKINGS      FAIR      77  53  43 S21G30    29.71S
WATERTOWN      FAIR      76  52  43 S18G29    29.68F
6HR MIN TEMP:  72; 6HR MAX TEMP:  77;

HURON          FAIR      83  57  41 S20G28    29.62S
6HR MIN TEMP:  76; 6HR MAX TEMP:  84;

SISSETON         N/A     79  46  31 S23G30    29.65F
ABERDEEN       FAIR      82  55  39 S21G28    29.61F
6HR MIN TEMP:  75; 6HR MAX TEMP:  83;

MITCHELL       FAIR      83  60  45 S25G37    29.62F
PIERRE         FAIR      91  59  33 S18       29.50F HX  90
6HR MIN TEMP:  81; 6HR MAX TEMP:  91;

MOBRIDGE       FAIR      88  58  36 S18       29.49F
RAPID CITY     TSTM      63  56  78 W21G29    29.74R
6HR MIN TEMP:  62; 6HR MAX TEMP:  95; 6HR PCP:  0.12;

$$

  *****  SOME WEATHER IN NEARBY STATES *****

CITY           SKY/WX    TMP DP  RH WIND       PRES   REMARKS
GLASGOW MT     FAIR      80  50  34 NW23G31   29.64R
6HR MIN TEMP:  77; 6HR MAX TEMP:  85; 6HR PCP: TRACE;

GREAT FALLS MT FAIR      78  50  37 E14       29.77S
6HR MIN TEMP:  74; 6HR MAX TEMP:  82;

CHEYENNE WY    FAIR      74  36  25 W39G60    29.94R SQUALL
6HR MIN TEMP:  82; 6HR MAX TEMP:  92;

SCOTTSBLUFF NE FAIR      87  51  28 NE6       29.68S
6HR MIN TEMP:  79; 6HR MAX TEMP:  96; 6HR PCP:  0.07;

OMAHA NE       PTSUNNY   79  63  57 S22G32    29.81F
6HR MIN TEMP:  76; 6HR MAX TEMP:  82;

DES MOINES IA  FAIR      79  55  43 SE17      29.90F
6HR MIN TEMP:  75; 6HR MAX TEMP:  80;

DAVENPORT IA   NOT AVBL
CHICAGO IL     FAIR      75  43  31 W5        30.01F
6HR MIN TEMP:  73; 6HR MAX TEMP:  78;

EAU CLAIRE WI  FAIR      73  44  35 S13       29.90F
6HR MIN TEMP:  72; 6HR MAX TEMP:  75;

LA CROSSE WI   FAIR      78  47  33 S12       29.92F
6HR MIN TEMP:  77; 6HR MAX TEMP:  81;

$$

  *****  SOME NATIONAL WEATHER *****

CITY           SKY/WX    TMP DP  RH WIND       PRES   REMARKS
LA GUARDIA NY  MOCLDY    74  51  44 NW15G24   29.94R
6HR MIN TEMP:  74; 6HR MAX TEMP:  79;

RALEIGH NC     FAIR      77  51  40 N3        30.04S
6HR MIN TEMP:  77; 6HR MAX TEMP:  83;

ATLANTA GA     FAIR      81  52  36 N14       30.04S
6HR MIN TEMP:  81; 6HR MAX TEMP:  84;

NEW ORLEANS LA CLOUDY    82  61  48 E5        29.97F
6HR MIN TEMP:  81; 6HR MAX TEMP:  86;

OKLAHOMA CITY  FAIR      89  63  41 SE18G24   29.89F HX  90
6HR MIN TEMP:  86; 6HR MAX TEMP:  92;

ALBUQUERQUE NM FAIR      91  39  16 S20       29.95F
6HR MIN TEMP:  81; 6HR MAX TEMP:  92; 6HR PCP: TRACE;

SALT LAKE CITY FAIR      89  31  12 N10       29.88F
6HR MIN TEMP:  85; 6HR MAX TEMP:  92;

LOS ANGELES CA FAIR      72  56  57 W12       29.85F
6HR MIN TEMP:  72; 6HR MAX TEMP:  77;

BOISE ID       FAIR


USA.gov is the U.S. government's official web portal to all federal, state and local government web resources and services.